DeKalb County Lake Weather Center

Moon Phase Calendar



DeKalb County Lake Water Level
Online Cameras

 


      

Current Conditions in Sylvania
11/24/2020 7:52:27 PM

52°F
Feels Like 45
Clear
Humidity
50%
Pressure
30.21"
Wind
6.9 mph (SE)
Dew Point
34°F
UV Index
3/10 (Moderate)
Visibility
6 mi

Hourly Forecast

Date & Time Tue, Nov 24
7:00 PM
Tue, Nov 24
8:00 PM
Tue, Nov 24
9:00 PM
Tue, Nov 24
10:00 PM
Tue, Nov 24
11:00 PM
Wed, Nov 25
12:00 AM
Wed, Nov 25
1:00 AM
Wed, Nov 25
2:00 AM
Wed, Nov 25
3:00 AM
Wed, Nov 25
4:00 AM
Wed, Nov 25
5:00 AM
Wed, Nov 25
6:00 AM
Wed, Nov 25
7:00 AM
Wed, Nov 25
8:00 AM
Wed, Nov 25
9:00 AM
Wed, Nov 25
10:00 AM
Wed, Nov 25
11:00 AM
Wed, Nov 25
12:00 PM
Wed, Nov 25
1:00 PM
Wed, Nov 25
2:00 PM
Wed, Nov 25
3:00 PM
Wed, Nov 25
4:00 PM
Wed, Nov 25
5:00 PM
Wed, Nov 25
6:00 PM
Wed, Nov 25
7:00 PM
Wed, Nov 25
8:00 PM
Wed, Nov 25
9:00 PM
Wed, Nov 25
10:00 PM
Wed, Nov 25
11:00 PM
Thu, Nov 26
12:00 AM
Thu, Nov 26
1:00 AM
Thu, Nov 26
2:00 AM
Thu, Nov 26
3:00 AM
Thu, Nov 26
4:00 AM
Thu, Nov 26
5:00 AM
Thu, Nov 26
6:00 AM
Thu, Nov 26
7:00 AM
Thu, Nov 26
8:00 AM
Thu, Nov 26
9:00 AM
Thu, Nov 26
10:00 AM
Thu, Nov 26
11:00 AM
Thu, Nov 26
12:00 PM
Thu, Nov 26
1:00 PM
Thu, Nov 26
2:00 PM
Thu, Nov 26
3:00 PM
Thu, Nov 26
4:00 PM
Thu, Nov 26
5:00 PM
Thu, Nov 26
6:00 PM
Condition
Clear

Clouds

Clouds

Clouds

Clouds

Clouds

Clouds

Clouds

Clouds

Clouds

Clouds

Clouds

Clouds

Clouds

Clouds

Clouds

Clouds

Clouds

Clouds

Rain

Clouds

Rain

Rain

Rain

Rain

Rain

Rain

Rain

Rain

Rain

Rain

Clouds

Clouds

Clouds

Clouds

Clouds

Clear

Clear

Clear

Clear

Clear

Clear

Clear

Clear

Clear

Clear

Clear

Clear
Temperature 52°F50°F48°F47°F47°F47°F47°F47°F47°F48°F50°F52°F54°F56°F57°F60°F60°F60°F61°F61°F62°F63°F62°F61°F61°F61°F61°F61°F61°F60°F60°F58°F55°F52°F50°F49°F49°F53°F57°F60°F62°F64°F65°F65°F64°F60°F55°F53°F
Feels Like 41°F39°F37°F36°F36°F37°F37°F37°F38°F39°F41°F44°F46°F48°F49°F51°F53°F54°F54°F55°F56°F58°F57°F57°F56°F56°F57°F58°F58°F58°F59°F57°F54°F51°F48°F47°F47°F52°F56°F58°F59°F61°F61°F61°F61°F58°F53°F52°F
Cloudiness 1%49%79%94%99%100%100%100%100%100%100%100%100%100%100%99%99%99%100%100%100%99%99%98%81%88%90%92%93%90%97%84%65%49%40%33%0%0%0%0%0%0%0%0%0%0%0%0%
Visibility 6 mi6 mi6 mi6 mi6 mi6 mi6 mi6 mi6 mi6 mi6 mi6 mi6 mi6 mi6 mi6 mi6 mi6 mi6 mi6 mi6 mi6 mi6 mi6 mi5 mi6 mi6 mi4 mi6 mi6 mi6 mi6 mi6 mi6 mi6 mi6 mi6 mi6 mi6 mi6 mi6 mi6 mi6 mi6 mi6 mi6 mi6 mi6 mi
Precipitation 0%0%0%0%0%0%0%0%0%0%0%0%0%0%0%0%0%0%22%35%36%49%67%92%100%100%100%100%100%100%47%43%43%39%35%33%0%0%0%0%0%0%0%0%0%0%0%0%
Humidity 50%55%60%64%68%74%79%83%89%91%91%92%91%89%85%80%81%83%82%83%83%83%88%91%94%95%96%98%97%98%98%97%96%94%94%95%96%87%73%65%59%54%51%51%55%65%70%73%
Dew Point 34°F35°F35°F36°F37°F39°F41°F42°F44°F46°F48°F50°F52°F53°F53°F54°F54°F55°F55°F56°F57°F58°F59°F59°F59°F60°F60°F61°F61°F60°F60°F58°F54°F51°F49°F48°F48°F49°F49°F49°F48°F47°F47°F47°F48°F48°F46°F45°F
Pressure 30.21"30.21"30.21"30.21"30.21"30.21"30.18"30.18"30.18"30.18"30.18"30.15"30.15"30.15"30.15"30.12"30.12"30.06"30.03"30.03"30"30"30"30"30"30.03"30.03"30.03"30.03"30.03"30.06"30.06"30.06"30.06"30.09"30.09"30.12"30.12"30.12"30.12"30.12"30.09"30.06"30.06"30.06"30.06"30.06"30.09"
Wind Speed 14.4 mph14.9 mph14.5 mph14.7 mph14.2 mph13.8 mph13.2 mph14.1 mph14.1 mph14.8 mph15.3 mph15.3 mph15.2 mph16.1 mph16.7 mph16.6 mph14 mph13 mph14.7 mph14.7 mph15 mph13.4 mph12.8 mph13.4 mph13.3 mph13.6 mph13.2 mph12.2 mph11.5 mph9.4 mph7.8 mph5.8 mph4 mph3.5 mph3.2 mph2.8 mph2 mph0.9 mph1.4 mph2.9 mph4.3 mph4.8 mph5.3 mph5 mph3.9 mph2.4 mph1.2 mph0.8 mph
Wind
Direction
137°
SE
138°
SE
137°
SE
136°
SE
135°
SE
134°
SE
135°
SE
138°
SE
141°
SE
144°
SE
147°
SSE
152°
SSE
154°
SSE
160°
SSE
163°
SSE
170°
S
170°
S
171°
S
171°
S
172°
S
170°
S
176°
S
175°
S
175°
S
177°
S
183°
S
194°
SSW
204°
SSW
226°
SW
231°
SW
247°
WSW
269°
W
281°
W
283°
WNW
297°
WNW
318°
NW
343°
NNW
358°
N
295°
WNW
262°
W
247°
WSW
249°
WSW
255°
WSW
259°
W
261°
W
280°
W
307°
NW

N

Daily Forecast

Date High Low Precip. Humidity
Today
Nov 24

Clouds
55 °F
38 °F
0%
49%
Wednesday
Nov 25

Rain
62 °F
47 °F
100%
83%
Thursday
Nov 26

Rain
64 °F
49 °F
100%
54%
Friday
Nov 27

Rain
68 °F
49 °F
100%
74%
Saturday
Nov 28

Rain
60 °F
47 °F
100%
74%
Sunday
Nov 29

Rain
51 °F
44 °F
100%
82%
Monday
Nov 30

Rain
47 °F
24 °F
100%
87%
Tuesday
Dec 1

Clear
35 °F
22 °F
0%
71%
Wednesday
Dec 2

Rain
48 °F
28 °F
48%
55%
Thursday
Dec 3

Clear
38 °F
24 °F
36%
73%
Friday
Dec 4

Clear
43 °F
25 °F
0%
57%
Saturday
Dec 5

Clear
46 °F
28 °F
0%
56%
Sunday
Dec 6

Clouds
46 °F
27 °F
0%
52%
Monday
Dec 7

Clouds
48 °F
35 °F
0%
54%
Tuesday
Dec 8

Clear
46 °F
33 °F
0%
55%
Wednesday
Dec 9

Clouds
46 °F
30 °F
0%
55%


Temperature 8-14 Day Outlook



Precipitation 8-14 Day Outlook




Quick Links
DeKalb County Lake News
DeKalb County Lake Photos
DeKalb County Lake Videos




About Us
Contact Us
Site Map
Search Site
Advertise With Us
   
DeKalbCounty.LakesOnline.com
THE DEKALB COUNTY LAKE WEBSITE

Copyright 2020, Lakes Online
Privacy    |    Legal